Location: ?????
(42.2640°N, 43.4211°E)
Time: 14:54:44
(UTC+00:00)

CZ-2D R/B - Pass Details

Date: 07 August 2020
Orbit: 552 x 639 km, 97.9° (Epoch: 20 September)

Event Time Altitude Azimuth Distance (km) Brightness Sun altitude
Rises 00:09:31 0° 14° (NNE) 2,795 7.9 -18.6°
Reaches altitude 10° 00:11:42 10° 16° (NNE) 1,880 6.9 -18.3°
Maximum altitude 00:15:46 75° 103° (ESE) 586 3.4 -17.8°
Enters shadow 00:17:45 28° 183° (S) 1,054 4.3 -17.5°
